Bourbeuse River (Missouri), High Gate (07015720)

StateMissouriLatestGood (69 cfs)
RiverBourbeuse RiverRatingObservedEstimated
Updated2026-05-10 13:00 (50 minutes ago)Flood - The river is flooding. Obstacles can be treacherous or deadly. The river should be avoided at this stage for casual trips and definitely for the inexperienced. Trips should be attempted only with protective gear and equipment.Flood(none)533
Discharge69 cfs (median: 59 cfs)High - The river is high and potentially dangerous, especially for the young and / or inexperienced. Normal stream obstacles are sometimes difficult to navigate. Extended distances can be attempted, but canoe travel may not be advisable.High(none)131
Height4.56 feetGood - Conditions are ideal for a canoe or kayak. Boats typically will drag on fewer than one-quarter of riffles, if at all, and portages are unnecessary or rare. Normal float lengths can be attempted without a problem.Good(none)48
TrendSteady (falling over 24 hours)Low - River is low but can still be floated. Some riffles are okay but most come with significant dragging and might need a portage. Float lengths should be reduced to accommodate low flow, dragging, and portages.Low(none)17
USGSExternal icon USGS Site (External icon Duck Duck Go Maps)Poor - River is too low to float comfortably. Most or all riffles will drag or must be portaged and some obstacles (such as slick shelf rock) cause undue problems. Avoid the river at this stage for casual paddling trips.Poor(none)2

Trending Data

Plot Image

Trips for Bourbeuse River (Missouri), High Gate (07015720)

DateStartEndDistanceConditionDischargeHeightFishingDetails

A total of 0 rows are displayed.

Condition Descriptions

Fishing Conditions

Fish Species

Notes

Classic Trip List

The classic River Trips application is still available for use. It is updated with the new system using a data retrofit. It is no longer maintained. The original River Trips application is no longer updated (as of 1 Dec 2016) but can be checked for errors or for the condition of the data before it was converted to the new system.

Gauge Data Table

ObservationHeightDischargeMaximum
Discharge
Minimum
Discharge
Mean
Discharge
P05P10P20P25P50
(Median)
P75P80P90P95
2026-05-10 13:00 4.56 69 4520 (1981) 6 (1986) 202 8 9 19 27 59 110 163 272 963
2026-05-10 12:00 4.56 69 4520 (1981) 6 (1986) 202 8 9 19 27 59 110 163 272 963
2026-05-10 11:00 4.58 72 4520 (1981) 6 (1986) 202 8 9 19 27 59 110 163 272 963
2026-05-10 10:00 4.60 75 4520 (1981) 6 (1986) 202 8 9 19 27 59 110 163 272 963
2026-05-10 09:00 4.60 75 4520 (1981) 6 (1986) 202 8 9 19 27 59 110 163 272 963
2026-05-10 08:00 4.61 77 4520 (1981) 6 (1986) 202 8 9 19 27 59 110 163 272 963
2026-05-10 07:00 4.62 78 4520 (1981) 6 (1986) 202 8 9 19 27 59 110 163 272 963
2026-05-10 06:00 4.64 81 4520 (1981) 6 (1986) 202 8 9 19 27 59 110 163 272 963
2026-05-10 05:00 4.65 83 4520 (1981) 6 (1986) 202 8 9 19 27 59 110 163 272 963
2026-05-10 04:00 4.67 86 4520 (1981) 6 (1986) 202 8 9 19 27 59 110 163 272 963
2026-05-10 03:00 4.68 88 4520 (1981) 6 (1986) 202 8 9 19 27 59 110 163 272 963
2026-05-10 02:00 4.69 89 4520 (1981) 6 (1986) 202 8 9 19 27 59 110 163 272 963
2026-05-10 01:00 4.71 93 4520 (1981) 6 (1986) 202 8 9 19 27 59 110 163 272 963
2026-05-10 00:00 4.72 95 4520 (1981) 6 (1986) 202 8 9 19 27 59 110 163 272 963
2026-05-09 23:00 4.74 98 4520 (1981) 6 (1986) 202 8 9 19 27 59 110 163 272 963
2026-05-09 22:00 4.76 102 4040 (2002) 6 (1986) 200 9 11 17 25 61 139 164 430 870
2026-05-09 21:00 4.77 104 4040 (2002) 6 (1986) 200 9 11 17 25 61 139 164 430 870
2026-05-09 20:00 4.80 110 4040 (2002) 6 (1986) 200 9 11 17 25 61 139 164 430 870
2026-05-09 19:00 4.81 112 4040 (2002) 6 (1986) 200 9 11 17 25 61 139 164 430 870
2026-05-09 18:00 4.83 116 4040 (2002) 6 (1986) 200 9 11 17 25 61 139 164 430 870
2026-05-09 17:00 4.86 122 4040 (2002) 6 (1986) 200 9 11 17 25 61 139 164 430 870
2026-05-09 16:00 4.89 129 4040 (2002) 6 (1986) 200 9 11 17 25 61 139 164 430 870
2026-05-09 15:00 4.92 135 4040 (2002) 6 (1986) 200 9 11 17 25 61 139 164 430 870
2026-05-09 14:00 4.94 140 4040 (2002) 6 (1986) 200 9 11 17 25 61 139 164 430 870
2026-05-09 13:00 4.92 135 4040 (2002) 6 (1986) 200 9 11 17 25 61 139 164 430 870
2026-05-09 12:00 4.84 118 4040 (2002) 6 (1986) 200 9 11 17 25 61 139 164 430 870
2026-05-09 11:00 4.73 97 4040 (2002) 6 (1986) 200 9 11 17 25 61 139 164 430 870
2026-05-09 10:00 4.70 91 4040 (2002) 6 (1986) 200 9 11 17 25 61 139 164 430 870
2026-05-09 09:00 4.66 84 4040 (2002) 6 (1986) 200 9 11 17 25 61 139 164 430 870
2026-05-09 08:00 4.62 78 4040 (2002) 6 (1986) 200 9 11 17 25 61 139 164 430 870
2026-05-09 07:00 4.60 75 4040 (2002) 6 (1986) 200 9 11 17 25 61 139 164 430 870
2026-05-09 06:00 4.58 72 4040 (2002) 6 (1986) 200 9 11 17 25 61 139 164 430 870
2026-05-09 05:00 4.53 65 4040 (2002) 6 (1986) 200 9 11 17 25 61 139 164 430 870
2026-05-09 04:00 4.47 58 4040 (2002) 6 (1986) 200 9 11 17 25 61 139 164 430 870
2026-05-09 03:00 4.41 52 4040 (2002) 6 (1986) 200 9 11 17 25 61 139 164 430 870
2026-05-09 02:00 4.36 46 4040 (2002) 6 (1986) 200 9 11 17 25 61 139 164 430 870
2026-05-09 01:00 4.33 44 4040 (2002) 6 (1986) 200 9 11 17 25 61 139 164 430 870
2026-05-09 00:00 4.30 41 4040 (2002) 6 (1986) 200 9 11 17 25 61 139 164 430 870
2026-05-08 23:00 4.28 39 4040 (2002) 6 (1986) 200 9 11 17 25 61 139 164 430 870
2026-05-08 22:00 4.24 36 7060 (2009) 6 (1986) 396 9 11 19 23 52 191 277 887 2770
2026-05-08 21:00 4.20 32 7060 (2009) 6 (1986) 396 9 11 19 23 52 191 277 887 2770
2026-05-08 20:00 4.20 32 7060 (2009) 6 (1986) 396 9 11 19 23 52 191 277 887 2770
2026-05-08 19:00 4.19 32 7060 (2009) 6 (1986) 396 9 11 19 23 52 191 277 887 2770
2026-05-08 18:00 4.19 32 7060 (2009) 6 (1986) 396 9 11 19 23 52 191 277 887 2770
2026-05-08 17:00 4.19 32 7060 (2009) 6 (1986) 396 9 11 19 23 52 191 277 887 2770
2026-05-08 16:00 4.20 32 7060 (2009) 6 (1986) 396 9 11 19 23 52 191 277 887 2770
2026-05-08 15:00 4.20 32 7060 (2009) 6 (1986) 396 9 11 19 23 52 191 277 887 2770
2026-05-08 14:00 4.20 32 7060 (2009) 6 (1986) 396 9 11 19 23 52 191 277 887 2770
2026-05-08 13:00 4.21 33 7060 (2009) 6 (1986) 396 9 11 19 23 52 191 277 887 2770
2026-05-08 12:00 4.21 33 7060 (2009) 6 (1986) 396 9 11 19 23 52 191 277 887 2770
2026-05-08 11:00 4.21 33 7060 (2009) 6 (1986) 396 9 11 19 23 52 191 277 887 2770
2026-05-08 10:00 4.21 33 7060 (2009) 6 (1986) 396 9 11 19 23 52 191 277 887 2770
2026-05-08 09:00 4.22 34 7060 (2009) 6 (1986) 396 9 11 19 23 52 191 277 887 2770
2026-05-08 08:00 4.22 34 7060 (2009) 6 (1986) 396 9 11 19 23 52 191 277 887 2770
2026-05-08 07:00 4.23 35 7060 (2009) 6 (1986) 396 9 11 19 23 52 191 277 887 2770
2026-05-08 06:00 4.23 35 7060 (2009) 6 (1986) 396 9 11 19 23 52 191 277 887 2770
2026-05-08 05:00 4.23 35 7060 (2009) 6 (1986) 396 9 11 19 23 52 191 277 887 2770
2026-05-08 04:00 4.24 36 7060 (2009) 6 (1986) 396 9 11 19 23 52 191 277 887 2770
2026-05-08 03:00 4.24 36 7060 (2009) 6 (1986) 396 9 11 19 23 52 191 277 887 2770
2026-05-08 02:00 4.25 36 7060 (2009) 6 (1986) 396 9 11 19 23 52 191 277 887 2770
2026-05-08 01:00 4.25 36 7060 (2009) 6 (1986) 396 9 11 19 23 52 191 277 887 2770
2026-05-08 00:00 4.25 36 7060 (2009) 6 (1986) 396 9 11 19 23 52 191 277 887 2770
2026-05-07 23:00 4.27 38 7060 (2009) 6 (1986) 396 9 11 19 23 52 191 277 887 2770
2026-05-07 22:00 4.27 38 4840 (1973) 6 (1986) 289 8 12 19 23 55 176 335 552 1650
2026-05-07 21:00 4.28 39 4840 (1973) 6 (1986) 289 8 12 19 23 55 176 335 552 1650
2026-05-07 20:00 4.28 39 4840 (1973) 6 (1986) 289 8 12 19 23 55 176 335 552 1650
2026-05-07 19:00 4.29 40 4840 (1973) 6 (1986) 289 8 12 19 23 55 176 335 552 1650
2026-05-07 18:00 4.29 40 4840 (1973) 6 (1986) 289 8 12 19 23 55 176 335 552 1650
2026-05-07 17:00 4.30 41 4840 (1973) 6 (1986) 289 8 12 19 23 55 176 335 552 1650
2026-05-07 16:00 4.30 41 4840 (1973) 6 (1986) 289 8 12 19 23 55 176 335 552 1650
2026-05-07 15:00 4.31 42 4840 (1973) 6 (1986) 289 8 12 19 23 55 176 335 552 1650
2026-05-07 14:00 4.32 43 4840 (1973) 6 (1986) 289 8 12 19 23 55 176 335 552 1650
2026-05-07 13:00 4.32 43 4840 (1973) 6 (1986) 289 8 12 19 23 55 176 335 552 1650
2026-05-07 12:00 4.33 44 4840 (1973) 6 (1986) 289 8 12 19 23 55 176 335 552 1650
2026-05-07 11:00 4.34 44 4840 (1973) 6 (1986) 289 8 12 19 23 55 176 335 552 1650
2026-05-07 10:00 4.34 44 4840 (1973) 6 (1986) 289 8 12 19 23 55 176 335 552 1650
2026-05-07 09:00 4.35 45 4840 (1973) 6 (1986) 289 8 12 19 23 55 176 335 552 1650
2026-05-07 08:00 4.35 45 4840 (1973) 6 (1986) 289 8 12 19 23 55 176 335 552 1650
2026-05-07 07:00 4.36 46 4840 (1973) 6 (1986) 289 8 12 19 23 55 176 335 552 1650
2026-05-07 06:00 4.37 47 4840 (1973) 6 (1986) 289 8 12 19 23 55 176 335 552 1650
2026-05-07 05:00 4.38 48 4840 (1973) 6 (1986) 289 8 12 19 23 55 176 335 552 1650
2026-05-07 04:00 4.39 49 4840 (1973) 6 (1986) 289 8 12 19 23 55 176 335 552 1650
2026-05-07 03:00 4.40 50 4840 (1973) 6 (1986) 289 8 12 19 23 55 176 335 552 1650
2026-05-07 02:00 4.41 52 4840 (1973) 6 (1986) 289 8 12 19 23 55 176 335 552 1650
2026-05-07 01:00 4.42 53 4840 (1973) 6 (1986) 289 8 12 19 23 55 176 335 552 1650
2026-05-07 00:00 4.42 53 4840 (1973) 6 (1986) 289 8 12 19 23 55 176 335 552 1650
2026-05-06 23:00 4.43 54 4840 (1973) 6 (1986) 289 8 12 19 23 55 176 335 552 1650
2026-05-06 22:00 4.43 54 3190 (1975) 4 (1977) 185 8 9 17 25 56 123 146 392 668
2026-05-06 21:00 4.43 54 3190 (1975) 4 (1977) 185 8 9 17 25 56 123 146 392 668
2026-05-06 20:00 4.42 53 3190 (1975) 4 (1977) 185 8 9 17 25 56 123 146 392 668
2026-05-06 19:00 4.40 50 3190 (1975) 4 (1977) 185 8 9 17 25 56 123 146 392 668
2026-05-06 18:00 4.40 50 3190 (1975) 4 (1977) 185 8 9 17 25 56 123 146 392 668
2026-05-06 17:00 4.39 49 3190 (1975) 4 (1977) 185 8 9 17 25 56 123 146 392 668
2026-05-06 16:00 4.40 50 3190 (1975) 4 (1977) 185 8 9 17 25 56 123 146 392 668
2026-05-06 15:00 4.40 50 3190 (1975) 4 (1977) 185 8 9 17 25 56 123 146 392 668
2026-05-06 14:00 4.40 50 3190 (1975) 4 (1977) 185 8 9 17 25 56 123 146 392 668
2026-05-06 13:00 4.41 52 3190 (1975) 4 (1977) 185 8 9 17 25 56 123 146 392 668
2026-05-06 12:00 4.40 50 3190 (1975) 4 (1977) 185 8 9 17 25 56 123 146 392 668
2026-05-06 11:00 4.40 50 3190 (1975) 4 (1977) 185 8 9 17 25 56 123 146 392 668
2026-05-06 10:00 4.40 50 3190 (1975) 4 (1977) 185 8 9 17 25 56 123 146 392 668
2026-05-06 09:00 4.40 50 3190 (1975) 4 (1977) 185 8 9 17 25 56 123 146 392 668
2026-05-06 08:00 4.40 50 3190 (1975) 4 (1977) 185 8 9 17 25 56 123 146 392 668
2026-05-06 07:00 4.39 49 3190 (1975) 4 (1977) 185 8 9 17 25 56 123 146 392 668
2026-05-06 06:00 4.40 50 3190 (1975) 4 (1977) 185 8 9 17 25 56 123 146 392 668
2026-05-06 05:00 4.39 49 3190 (1975) 4 (1977) 185 8 9 17 25 56 123 146 392 668
2026-05-06 04:00 4.40 50 3190 (1975) 4 (1977) 185 8 9 17 25 56 123 146 392 668
2026-05-06 03:00 4.39 49 3190 (1975) 4 (1977) 185 8 9 17 25 56 123 146 392 668
2026-05-06 02:00 4.39 49 3190 (1975) 4 (1977) 185 8 9 17 25 56 123 146 392 668
2026-05-06 01:00 4.39 49 3190 (1975) 4 (1977) 185 8 9 17 25 56 123 146 392 668
2026-05-06 00:00 4.38 48 3190 (1975) 4 (1977) 185 8 9 17 25 56 123 146 392 668
2026-05-05 23:00 4.38 48 3190 (1975) 4 (1977) 185 8 9 17 25 56 123 146 392 668
2026-05-05 22:00 4.38 48 9130 (2022) 4 (1977) 334 7 12 19 27 55 161 188 337 1670
2026-05-05 21:00 4.37 47 9130 (2022) 4 (1977) 334 7 12 19 27 55 161 188 337 1670
2026-05-05 20:00 4.37 47 9130 (2022) 4 (1977) 334 7 12 19 27 55 161 188 337 1670
2026-05-05 19:00 4.36 46 9130 (2022) 4 (1977) 334 7 12 19 27 55 161 188 337 1670
2026-05-05 18:00 4.35 45 9130 (2022) 4 (1977) 334 7 12 19 27 55 161 188 337 1670
2026-05-05 17:00 4.36 46 9130 (2022) 4 (1977) 334 7 12 19 27 55 161 188 337 1670
2026-05-05 16:00 4.35 45 9130 (2022) 4 (1977) 334 7 12 19 27 55 161 188 337 1670
2026-05-05 15:00 4.36 46 9130 (2022) 4 (1977) 334 7 12 19 27 55 161 188 337 1670
2026-05-05 14:00 4.35 45 9130 (2022) 4 (1977) 334 7 12 19 27 55 161 188 337 1670
2026-05-05 13:00 4.36 46 9130 (2022) 4 (1977) 334 7 12 19 27 55 161 188 337 1670
2026-05-05 12:00 4.37 47 9130 (2022) 4 (1977) 334 7 12 19 27 55 161 188 337 1670
2026-05-05 11:00 4.35 45 9130 (2022) 4 (1977) 334 7 12 19 27 55 161 188 337 1670
2026-05-05 10:00 4.36 46 9130 (2022) 4 (1977) 334 7 12 19 27 55 161 188 337 1670
2026-05-05 09:00 4.37 47 9130 (2022) 4 (1977) 334 7 12 19 27 55 161 188 337 1670
2026-05-05 08:00 4.37 47 9130 (2022) 4 (1977) 334 7 12 19 27 55 161 188 337 1670
2026-05-05 07:00 4.37 47 9130 (2022) 4 (1977) 334 7 12 19 27 55 161 188 337 1670
2026-05-05 06:00 4.36 46 9130 (2022) 4 (1977) 334 7 12 19 27 55 161 188 337 1670
2026-05-05 05:00 4.36 46 9130 (2022) 4 (1977) 334 7 12 19 27 55 161 188 337 1670
2026-05-05 04:00 4.35 45 9130 (2022) 4 (1977) 334 7 12 19 27 55 161 188 337 1670
2026-05-05 03:00 4.36 46 9130 (2022) 4 (1977) 334 7 12 19 27 55 161 188 337 1670
2026-05-05 02:00 4.36 46 9130 (2022) 4 (1977) 334 7 12 19 27 55 161 188 337 1670
2026-05-05 01:00 4.36 46 9130 (2022) 4 (1977) 334 7 12 19 27 55 161 188 337 1670
2026-05-05 00:00 4.37 47 9130 (2022) 4 (1977) 334 7 12 19 27 55 161 188 337 1670
2026-05-04 23:00 4.37 47 9130 (2022) 4 (1977) 334 7 12 19 27 55 161 188 337 1670
2026-05-04 22:00 4.38 48 6270 (2017) 4 (1977) 270 8 12 19 29 68 175 323 589 1170
2026-05-04 21:00 4.39 49 6270 (2017) 4 (1977) 270 8 12 19 29 68 175 323 589 1170
2026-05-04 20:00 4.39 49 6270 (2017) 4 (1977) 270 8 12 19 29 68 175 323 589 1170
2026-05-04 19:00 4.40 50 6270 (2017) 4 (1977) 270 8 12 19 29 68 175 323 589 1170
2026-05-04 18:00 4.40 50 6270 (2017) 4 (1977) 270 8 12 19 29 68 175 323 589 1170
2026-05-04 17:00 4.41 52 6270 (2017) 4 (1977) 270 8 12 19 29 68 175 323 589 1170
2026-05-04 16:00 4.42 53 6270 (2017) 4 (1977) 270 8 12 19 29 68 175 323 589 1170
2026-05-04 15:00 4.42 53 6270 (2017) 4 (1977) 270 8 12 19 29 68 175 323 589 1170
2026-05-04 14:00 4.42 53 6270 (2017) 4 (1977) 270 8 12 19 29 68 175 323 589 1170
2026-05-04 13:00 4.42 53 6270 (2017) 4 (1977) 270 8 12 19 29 68 175 323 589 1170
2026-05-04 12:00 4.44 55 6270 (2017) 4 (1977) 270 8 12 19 29 68 175 323 589 1170
2026-05-04 11:00 4.44 55 6270 (2017) 4 (1977) 270 8 12 19 29 68 175 323 589 1170
2026-05-04 10:00 4.45 56 6270 (2017) 4 (1977) 270 8 12 19 29 68 175 323 589 1170
2026-05-04 09:00 4.45 56 6270 (2017) 4 (1977) 270 8 12 19 29 68 175 323 589 1170
2026-05-04 08:00 4.45 56 6270 (2017) 4 (1977) 270 8 12 19 29 68 175 323 589 1170
2026-05-04 07:00 4.45 56 6270 (2017) 4 (1977) 270 8 12 19 29 68 175 323 589 1170
2026-05-04 06:00 4.45 56 6270 (2017) 4 (1977) 270 8 12 19 29 68 175 323 589 1170
2026-05-04 05:00 4.46 57 6270 (2017) 4 (1977) 270 8 12 19 29 68 175 323 589 1170
2026-05-04 04:00 4.47 58 6270 (2017) 4 (1977) 270 8 12 19 29 68 175 323 589 1170
2026-05-04 03:00 4.47 58 6270 (2017) 4 (1977) 270 8 12 19 29 68 175 323 589 1170
2026-05-04 02:00 4.48 59 6270 (2017) 4 (1977) 270 8 12 19 29 68 175 323 589 1170
2026-05-04 01:00 4.48 59 6270 (2017) 4 (1977) 270 8 12 19 29 68 175 323 589 1170
2026-05-04 00:00 4.49 60 6270 (2017) 4 (1977) 270 8 12 19 29 68 175 323 589 1170
2026-05-03 23:00 4.49 60 6270 (2017) 4 (1977) 270 8 12 19 29 68 175 323 589 1170
2026-05-03 22:00 4.49 60 3690 (1990) 4 (1977) 280 8 10 21 27 74 191 326 539 1480
2026-05-03 21:00 4.51 63 3690 (1990) 4 (1977) 280 8 10 21 27 74 191 326 539 1480
2026-05-03 20:00 4.51 63 3690 (1990) 4 (1977) 280 8 10 21 27 74 191 326 539 1480
2026-05-03 19:00 4.51 63 3690 (1990) 4 (1977) 280 8 10 21 27 74 191 326 539 1480
2026-05-03 18:00 4.52 64 3690 (1990) 4 (1977) 280 8 10 21 27 74 191 326 539 1480
2026-05-03 17:00 4.52 64 3690 (1990) 4 (1977) 280 8 10 21 27 74 191 326 539 1480
2026-05-03 16:00 4.53 65 3690 (1990) 4 (1977) 280 8 10 21 27 74 191 326 539 1480
2026-05-03 15:00 4.54 67 3690 (1990) 4 (1977) 280 8 10 21 27 74 191 326 539 1480
2026-05-03 14:00 4.54 67 3690 (1990) 4 (1977) 280 8 10 21 27 74 191 326 539 1480
2026-05-03 13:00 4.55 68 3690 (1990) 4 (1977) 280 8 10 21 27 74 191 326 539 1480
2026-05-03 12:00 4.56 69 3690 (1990) 4 (1977) 280 8 10 21 27 74 191 326 539 1480
2026-05-03 11:00 4.56 69 3690 (1990) 4 (1977) 280 8 10 21 27 74 191 326 539 1480
2026-05-03 10:00 4.57 71 3690 (1990) 4 (1977) 280 8 10 21 27 74 191 326 539 1480
2026-05-03 09:00 4.57 71 3690 (1990) 4 (1977) 280 8 10 21 27 74 191 326 539 1480
2026-05-03 08:00 4.57 71 3690 (1990) 4 (1977) 280 8 10 21 27 74 191 326 539 1480
2026-05-03 07:00 4.57 71 3690 (1990) 4 (1977) 280 8 10 21 27 74 191 326 539 1480
2026-05-03 06:00 4.57 71 3690 (1990) 4 (1977) 280 8 10 21 27 74 191 326 539 1480
2026-05-03 05:00 4.58 72 3690 (1990) 4 (1977) 280 8 10 21 27 74 191 326 539 1480
2026-05-03 04:00 4.58 72 3690 (1990) 4 (1977) 280 8 10 21 27 74 191 326 539 1480
2026-05-03 03:00 4.58 72 3690 (1990) 4 (1977) 280 8 10 21 27 74 191 326 539 1480
2026-05-03 02:00 4.59 74 3690 (1990) 4 (1977) 280 8 10 21 27 74 191 326 539 1480
2026-05-03 01:00 4.60 75 3690 (1990) 4 (1977) 280 8 10 21 27 74 191 326 539 1480
2026-05-03 00:00 4.60 75 3690 (1990) 4 (1977) 280 8 10 21 27 74 191 326 539 1480
2026-05-02 23:00 4.60 75 3690 (1990) 4 (1977) 280 8 10 21 27 74 191 326 539 1480
2026-05-02 22:00 4.61 77 1160 (2019) 5 (1977) 163 8 10 21 26 60 156 227 387 1030
2026-05-02 21:00 4.62 78 1160 (2019) 5 (1977) 163 8 10 21 26 60 156 227 387 1030
2026-05-02 20:00 4.62 78 1160 (2019) 5 (1977) 163 8 10 21 26 60 156 227 387 1030
2026-05-02 19:00 4.63 80 1160 (2019) 5 (1977) 163 8 10 21 26 60 156 227 387 1030
2026-05-02 18:00 4.64 81 1160 (2019) 5 (1977) 163 8 10 21 26 60 156 227 387 1030
2026-05-02 17:00 4.65 83 1160 (2019) 5 (1977) 163 8 10 21 26 60 156 227 387 1030
2026-05-02 16:00 4.66 84 1160 (2019) 5 (1977) 163 8 10 21 26 60 156 227 387 1030
2026-05-02 15:00 4.66 84 1160 (2019) 5 (1977) 163 8 10 21 26 60 156 227 387 1030
2026-05-02 14:00 4.66 84 1160 (2019) 5 (1977) 163 8 10 21 26 60 156 227 387 1030
2026-05-02 13:00 4.68 88 1160 (2019) 5 (1977) 163 8 10 21 26 60 156 227 387 1030
2026-05-02 12:00 4.68 88 1160 (2019) 5 (1977) 163 8 10 21 26 60 156 227 387 1030
2026-05-02 11:00 4.69 89 1160 (2019) 5 (1977) 163 8 10 21 26 60 156 227 387 1030
2026-05-02 10:00 4.69 89 1160 (2019) 5 (1977) 163 8 10 21 26 60 156 227 387 1030
2026-05-02 09:00 4.69 89 1160 (2019) 5 (1977) 163 8 10 21 26 60 156 227 387 1030
2026-05-02 08:00 4.69 89 1160 (2019) 5 (1977) 163 8 10 21 26 60 156 227 387 1030
2026-05-02 07:00 4.71 93 1160 (2019) 5 (1977) 163 8 10 21 26 60 156 227 387 1030
2026-05-02 06:00 4.72 95 1160 (2019) 5 (1977) 163 8 10 21 26 60 156 227 387 1030
2026-05-02 05:00 4.72 95 1160 (2019) 5 (1977) 163 8 10 21 26 60 156 227 387 1030
2026-05-02 04:00 4.73 97 1160 (2019) 5 (1977) 163 8 10 21 26 60 156 227 387 1030
2026-05-02 03:00 4.73 97 1160 (2019) 5 (1977) 163 8 10 21 26 60 156 227 387 1030
2026-05-02 02:00 4.74 98 1160 (2019) 5 (1977) 163 8 10 21 26 60 156 227 387 1030
2026-05-02 01:00 4.74 98 1160 (2019) 5 (1977) 163 8 10 21 26 60 156 227 387 1030
2026-05-02 00:00 4.75 100 1160 (2019) 5 (1977) 163 8 10 21 26 60 156 227 387 1030
2026-05-01 23:00 4.76 102 1160 (2019) 5 (1977) 163 8 10 21 26 60 156 227 387 1030
2026-05-01 22:00 4.77 104 7290 (1983) 7 (1986) 562 8 11 26 29 60 240 270 1350 4450
2026-05-01 21:00 4.79 108 7290 (1983) 7 (1986) 562 8 11 26 29 60 240 270 1350 4450
2026-05-01 20:00 4.80 110 7290 (1983) 7 (1986) 562 8 11 26 29 60 240 270 1350 4450
2026-05-01 19:00 4.80 110 7290 (1983) 7 (1986) 562 8 11 26 29 60 240 270 1350 4450
2026-05-01 18:00 4.81 112 7290 (1983) 7 (1986) 562 8 11 26 29 60 240 270 1350 4450
2026-05-01 17:00 4.82 114 7290 (1983) 7 (1986) 562 8 11 26 29 60 240 270 1350 4450
2026-05-01 16:00 4.83 116 7290 (1983) 7 (1986) 562 8 11 26 29 60 240 270 1350 4450
2026-05-01 15:00 4.84 118 7290 (1983) 7 (1986) 562 8 11 26 29 60 240 270 1350 4450
2026-05-01 14:00 4.85 120 7290 (1983) 7 (1986) 562 8 11 26 29 60 240 270 1350 4450
2026-05-01 13:00 4.86 122 7290 (1983) 7 (1986) 562 8 11 26 29 60 240 270 1350 4450
2026-05-01 12:00 4.86 122 7290 (1983) 7 (1986) 562 8 11 26 29 60 240 270 1350 4450
2026-05-01 11:00 4.87 124 7290 (1983) 7 (1986) 562 8 11 26 29 60 240 270 1350 4450
2026-05-01 10:00 4.89 129 7290 (1983) 7 (1986) 562 8 11 26 29 60 240 270 1350 4450
2026-05-01 09:00 4.89 129 7290 (1983) 7 (1986) 562 8 11 26 29 60 240 270 1350 4450
2026-05-01 08:00 4.89 129 7290 (1983) 7 (1986) 562 8 11 26 29 60 240 270 1350 4450
2026-05-01 07:00 4.90 131 7290 (1983) 7 (1986) 562 8 11 26 29 60 240 270 1350 4450
2026-05-01 06:00 4.91 133 7290 (1983) 7 (1986) 562 8 11 26 29 60 240 270 1350 4450
2026-05-01 05:00 4.93 138 7290 (1983) 7 (1986) 562 8 11 26 29 60 240 270 1350 4450
2026-05-01 04:00 4.94 140 7290 (1983) 7 (1986) 562 8 11 26 29 60 240 270 1350 4450
2026-05-01 03:00 4.94 140 7290 (1983) 7 (1986) 562 8 11 26 29 60 240 270 1350 4450
2026-05-01 02:00 4.94 140 7290 (1983) 7 (1986) 562 8 11 26 29 60 240 270 1350 4450
2026-05-01 01:00 4.96 145 7290 (1983) 7 (1986) 562 8 11 26 29 60 240 270 1350 4450
2026-05-01 00:00 4.97 147 7290 (1983) 7 (1986) 562 8 11 26 29 60 240 270 1350 4450
2026-04-30 23:00 4.98 149 7290 (1983) 7 (1986) 562 8 11 26 29 60 240 270 1350 4450
2026-04-30 22:00 5.00 154 12900 (2017) 7 (1986) 493 8 14 29 32 71 348 394 646 2430
2026-04-30 21:00 5.02 159 12900 (2017) 7 (1986) 493 8 14 29 32 71 348 394 646 2430
2026-04-30 20:00 5.03 162 12900 (2017) 7 (1986) 493 8 14 29 32 71 348 394 646 2430
2026-04-30 19:00 5.05 167 12900 (2017) 7 (1986) 493 8 14 29 32 71 348 394 646 2430
2026-04-30 18:00 5.07 172 12900 (2017) 7 (1986) 493 8 14 29 32 71 348 394 646 2430
2026-04-30 17:00 5.07 172 12900 (2017) 7 (1986) 493 8 14 29 32 71 348 394 646 2430
2026-04-30 16:00 5.09 178 12900 (2017) 7 (1986) 493 8 14 29 32 71 348 394 646 2430
2026-04-30 15:00 5.10 181 12900 (2017) 7 (1986) 493 8 14 29 32 71 348 394 646 2430
2026-04-30 14:00 5.11 183 12900 (2017) 7 (1986) 493 8 14 29 32 71 348 394 646 2430
2026-04-30 13:00 5.13 189 12900 (2017) 7 (1986) 493 8 14 29 32 71 348 394 646 2430
2026-04-30 12:00 5.16 198 12900 (2017) 7 (1986) 493 8 14 29 32 71 348 394 646 2430
2026-04-30 11:00 5.16 198 12900 (2017) 7 (1986) 493 8 14 29 32 71 348 394 646 2430
2026-04-30 10:00 5.19 206 12900 (2017) 7 (1986) 493 8 14 29 32 71 348 394 646 2430
2026-04-30 09:00 5.20 209 12900 (2017) 7 (1986) 493 8 14 29 32 71 348 394 646 2430
2026-04-30 08:00 5.21 212 12900 (2017) 7 (1986) 493 8 14 29 32 71 348 394 646 2430
2026-04-30 07:00 5.24 222 12900 (2017) 7 (1986) 493 8 14 29 32 71 348 394 646 2430
2026-04-30 06:00 5.26 228 12900 (2017) 7 (1986) 493 8 14 29 32 71 348 394 646 2430
2026-04-30 05:00 5.28 235 12900 (2017) 7 (1986) 493 8 14 29 32 71 348 394 646 2430
2026-04-30 04:00 5.32 248 12900 (2017) 7 (1986) 493 8 14 29 32 71 348 394 646 2430
2026-04-30 03:00 5.34 255 12900 (2017) 7 (1986) 493 8 14 29 32 71 348 394 646 2430
2026-04-30 02:00 5.38 269 12900 (2017) 7 (1986) 493 8 14 29 32 71 348 394 646 2430
2026-04-30 01:00 5.42 283 12900 (2017) 7 (1986) 493 8 14 29 32 71 348 394 646 2430
2026-04-30 00:00 5.46 298 12900 (2017) 7 (1986) 493 8 14 29 32 71 348 394 646 2430
2026-04-29 23:00 5.50 314 12900 (2017) 7 (1986) 493 8 14 29 32 71 348 394 646 2430
2026-04-29 22:00 5.55 334 6460 (2017) 4 (1977) 459 9 18 29 35 68 193 285 2000 2930
2026-04-29 21:00 5.60 355 6460 (2017) 4 (1977) 459 9 18 29 35 68 193 285 2000 2930
2026-04-29 20:00 5.65 377 6460 (2017) 4 (1977) 459 9 18 29 35 68 193 285 2000 2930
2026-04-29 19:00 5.70 400 6460 (2017) 4 (1977) 459 9 18 29 35 68 193 285 2000 2930
2026-04-29 18:00 5.76 429 6460 (2017) 4 (1977) 459 9 18 29 35 68 193 285 2000 2930
2026-04-29 17:00 5.82 458 6460 (2017) 4 (1977) 459 9 18 29 35 68 193 285 2000 2930
2026-04-29 16:00 5.88 490 6460 (2017) 4 (1977) 459 9 18 29 35 68 193 285 2000 2930
2026-04-29 15:00 5.93 517 6460 (2017) 4 (1977) 459 9 18 29 35 68 193 285 2000 2930
2026-04-29 14:00 5.99 550 6460 (2017) 4 (1977) 459 9 18 29 35 68 193 285 2000 2930
2026-04-29 13:00 6.07 598 6460 (2017) 4 (1977) 459 9 18 29 35 68 193 285 2000 2930
2026-04-29 12:00 6.13 630 6460 (2017) 4 (1977) 459 9 18 29 35 68 193 285 2000 2930
2026-04-29 11:00 6.20 667 6460 (2017) 4 (1977) 459 9 18 29 35 68 193 285 2000 2930
2026-04-29 10:00 6.28 712 6460 (2017) 4 (1977) 459 9 18 29 35 68 193 285 2000 2930
2026-04-29 09:00 6.36 759 6460 (2017) 4 (1977) 459 9 18 29 35 68 193 285 2000 2930
2026-04-29 08:00 6.44 808 6460 (2017) 4 (1977) 459 9 18 29 35 68 193 285 2000 2930
2026-04-29 07:00 6.54 868 6460 (2017) 4 (1977) 459 9 18 29 35 68 193 285 2000 2930
2026-04-29 06:00 6.65 933 6460 (2017) 4 (1977) 459 9 18 29 35 68 193 285 2000 2930
2026-04-29 05:00 6.74 988 6460 (2017) 4 (1977) 459 9 18 29 35 68 193 285 2000 2930
2026-04-29 04:00 6.81 1030 6460 (2017) 4 (1977) 459 9 18 29 35 68 193 285 2000 2930
2026-04-29 03:00 6.87 1070 6460 (2017) 4 (1977) 459 9 18 29 35 68 193 285 2000 2930
2026-04-29 02:00 6.87 1070 6460 (2017) 4 (1977) 459 9 18 29 35 68 193 285 2000 2930
2026-04-29 01:00 6.71 970 6460 (2017) 4 (1977) 459 9 18 29 35 68 193 285 2000 2930
2026-04-29 00:00 6.44 808 6460 (2017) 4 (1977) 459 9 18 29 35 68 193 285 2000 2930
2026-04-28 23:00 6.07 598 6460 (2017) 4 (1977) 459 9 18 29 35 68 193 285 2000 2930
2026-04-28 22:00 5.70 400 7700 (1994) 5 (1977) 390 9 15 27 33 77 154 358 590 1240
2026-04-28 21:00 5.47 302 7700 (1994) 5 (1977) 390 9 15 27 33 77 154 358 590 1240
2026-04-28 20:00 5.39 272 7700 (1994) 5 (1977) 390 9 15 27 33 77 154 358 590 1240
2026-04-28 19:00 5.33 251 7700 (1994) 5 (1977) 390 9 15 27 33 77 154 358 590 1240
2026-04-28 18:00 5.32 248 7700 (1994) 5 (1977) 390 9 15 27 33 77 154 358 590 1240
2026-04-28 17:00 5.34 255 7700 (1994) 5 (1977) 390 9 15 27 33 77 154 358 590 1240
2026-04-28 16:00 5.35 258 7700 (1994) 5 (1977) 390 9 15 27 33 77 154 358 590 1240
2026-04-28 15:00 5.38 269 7700 (1994) 5 (1977) 390 9 15 27 33 77 154 358 590 1240
2026-04-28 14:00 5.41 280 7700 (1994) 5 (1977) 390 9 15 27 33 77 154 358 590 1240
2026-04-28 13:00 5.45 295 7700 (1994) 5 (1977) 390 9 15 27 33 77 154 358 590 1240
2026-04-28 12:00 5.49 310 7700 (1994) 5 (1977) 390 9 15 27 33 77 154 358 590 1240
2026-04-28 11:00 5.53 326 7700 (1994) 5 (1977) 390 9 15 27 33 77 154 358 590 1240
2026-04-28 10:00 5.58 347 7700 (1994) 5 (1977) 390 9 15 27 33 77 154 358 590 1240
2026-04-28 09:00 5.63 368 7700 (1994) 5 (1977) 390 9 15 27 33 77 154 358 590 1240
2026-04-28 08:00 5.67 386 7700 (1994) 5 (1977) 390 9 15 27 33 77 154 358 590 1240
2026-04-28 07:00 5.72 409 7700 (1994) 5 (1977) 390 9 15 27 33 77 154 358 590 1240
2026-04-28 06:00 5.77 434 7700 (1994) 5 (1977) 390 9 15 27 33 77 154 358 590 1240
2026-04-28 05:00 5.82 458 7700 (1994) 5 (1977) 390 9 15 27 33 77 154 358 590 1240
2026-04-28 04:00 5.88 490 7700 (1994) 5 (1977) 390 9 15 27 33 77 154 358 590 1240
2026-04-28 03:00 5.95 528 7700 (1994) 5 (1977) 390 9 15 27 33 77 154 358 590 1240
2026-04-28 02:00 6.02 568 7700 (1994) 5 (1977) 390 9 15 27 33 77 154 358 590 1240
2026-04-28 01:00 6.11 619 7700 (1994) 5 (1977) 390 9 15 27 33 77 154 358 590 1240
2026-04-28 00:00 6.19 662 7700 (1994) 5 (1977) 390 9 15 27 33 77 154 358 590 1240
2026-04-27 23:00 6.19 662 7700 (1994) 5 (1977) 390 9 15 27 33 77 154 358 590 1240
2026-04-27 22:00 6.15 640 1880 (2013) 6 (1977) 202 9 16 27 35 73 150 186 634 1370
2026-04-27 21:00 6.15 640 1880 (2013) 6 (1977) 202 9 16 27 35 73 150 186 634 1370
2026-04-27 20:00 6.21 673 1880 (2013) 6 (1977) 202 9 16 27 35 73 150 186 634 1370
2026-04-27 19:00 6.34 747 1880 (2013) 6 (1977) 202 9 16 27 35 73 150 186 634 1370
2026-04-27 18:00 6.46 820 1880 (2013) 6 (1977) 202 9 16 27 35 73 150 186 634 1370
2026-04-27 17:00 6.61 909 1880 (2013) 6 (1977) 202 9 16 27 35 73 150 186 634 1370
2026-04-27 16:00 6.77 1010 1880 (2013) 6 (1977) 202 9 16 27 35 73 150 186 634 1370
2026-04-27 15:00 6.96 1130 1880 (2013) 6 (1977) 202 9 16 27 35 73 150 186 634 1370
2026-04-27 14:00 7.14 1260 1880 (2013) 6 (1977) 202 9 16 27 35 73 150 186 634 1370
2026-04-27 13:00 7.37 1420 1880 (2013) 6 (1977) 202 9 16 27 35 73 150 186 634 1370
2026-04-27 12:00 7.66 1610 1880 (2013) 6 (1977) 202 9 16 27 35 73 150 186 634 1370
2026-04-27 11:00 8.00 1860 1880 (2013) 6 (1977) 202 9 16 27 35 73 150 186 634 1370
2026-04-27 10:00 8.32 2070 1880 (2013) 6 (1977) 202 9 16 27 35 73 150 186 634 1370
2026-04-27 09:00 8.63 2260 1880 (2013) 6 (1977) 202 9 16 27 35 73 150 186 634 1370
2026-04-27 08:00 8.64 2270 1880 (2013) 6 (1977) 202 9 16 27 35 73 150 186 634 1370
2026-04-27 07:00 7.25 1340 1880 (2013) 6 (1977) 202 9 16 27 35 73 150 186 634 1370
2026-04-27 06:00 4.87 124 1880 (2013) 6 (1977) 202 9 16 27 35 73 150 186 634 1370
2026-04-27 05:00 4.76 102 1880 (2013) 6 (1977) 202 9 16 27 35 73 150 186 634 1370
2026-04-27 04:00 4.70 91 1880 (2013) 6 (1977) 202 9 16 27 35 73 150 186 634 1370
2026-04-27 03:00 4.68 88 1880 (2013) 6 (1977) 202 9 16 27 35 73 150 186 634 1370
2026-04-27 02:00 4.66 84 1880 (2013) 6 (1977) 202 9 16 27 35 73 150 186 634 1370
2026-04-27 01:00 4.64 81 1880 (2013) 6 (1977) 202 9 16 27 35 73 150 186 634 1370
2026-04-27 00:00 4.63 80 1880 (2013) 6 (1977) 202 9 16 27 35 73 150 186 634 1370
2026-04-26 23:00 4.63 80 1880 (2013) 6 (1977) 202 9 16 27 35 73 150 186 634 1370
2026-04-26 22:00 4.64 81 3090 (1999) 7 (1977) 268 9 17 27 31 67 220 267 886 1320
2026-04-26 21:00 4.65 83 3090 (1999) 7 (1977) 268 9 17 27 31 67 220 267 886 1320
2026-04-26 20:00 4.65 83 3090 (1999) 7 (1977) 268 9 17 27 31 67 220 267 886 1320
2026-04-26 19:00 4.66 84 3090 (1999) 7 (1977) 268 9 17 27 31 67 220 267 886 1320
2026-04-26 18:00 4.67 86 3090 (1999) 7 (1977) 268 9 17 27 31 67 220 267 886 1320
2026-04-26 17:00 4.68 88 3090 (1999) 7 (1977) 268 9 17 27 31 67 220 267 886 1320
2026-04-26 16:00 4.69 89 3090 (1999) 7 (1977) 268 9 17 27 31 67 220 267 886 1320
2026-04-26 15:00 4.70 91 3090 (1999) 7 (1977) 268 9 17 27 31 67 220 267 886 1320
2026-04-26 14:00 4.70 91 3090 (1999) 7 (1977) 268 9 17 27 31 67 220 267 886 1320
2026-04-26 13:00 4.71 93 3090 (1999) 7 (1977) 268 9 17 27 31 67 220 267 886 1320
2026-04-26 12:00 4.72 95 3090 (1999) 7 (1977) 268 9 17 27 31 67 220 267 886 1320
2026-04-26 11:00 4.73 97 3090 (1999) 7 (1977) 268 9 17 27 31 67 220 267 886 1320
2026-04-26 10:00 4.75 100 3090 (1999) 7 (1977) 268 9 17 27 31 67 220 267 886 1320
2026-04-26 09:00 4.75 100 3090 (1999) 7 (1977) 268 9 17 27 31 67 220 267 886 1320
2026-04-26 08:00 4.76 102 3090 (1999) 7 (1977) 268 9 17 27 31 67 220 267 886 1320
2026-04-26 07:00 4.76 102 3090 (1999) 7 (1977) 268 9 17 27 31 67 220 267 886 1320
2026-04-26 06:00 4.77 104 3090 (1999) 7 (1977) 268 9 17 27 31 67 220 267 886 1320
2026-04-26 05:00 4.78 106 3090 (1999) 7 (1977) 268 9 17 27 31 67 220 267 886 1320
2026-04-26 04:00 4.79 108 3090 (1999) 7 (1977) 268 9 17 27 31 67 220 267 886 1320
2026-04-26 03:00 4.80 110 3090 (1999) 7 (1977) 268 9 17 27 31 67 220 267 886 1320
2026-04-26 02:00 4.82 114 3090 (1999) 7 (1977) 268 9 17 27 31 67 220 267 886 1320
2026-04-26 01:00 4.83 116 3090 (1999) 7 (1977) 268 9 17 27 31 67 220 267 886 1320
2026-04-26 00:00 4.84 118 3090 (1999) 7 (1977) 268 9 17 27 31 67 220 267 886 1320
2026-04-25 23:00 4.86 122 3090 (1999) 7 (1977) 268 9 17 27 31 67 220 267 886 1320
2026-04-25 22:00 4.87 124 7000 (1975) 7 (1986) 332 10 15 28 37 86 228 286 750 1340
2026-04-25 21:00 4.89 129 7000 (1975) 7 (1986) 332 10 15 28 37 86 228 286 750 1340
2026-04-25 20:00 4.90 131 7000 (1975) 7 (1986) 332 10 15 28 37 86 228 286 750 1340
2026-04-25 19:00 4.91 133 7000 (1975) 7 (1986) 332 10 15 28 37 86 228 286 750 1340
2026-04-25 18:00 4.92 135 7000 (1975) 7 (1986) 332 10 15 28 37 86 228 286 750 1340
2026-04-25 17:00 4.94 140 7000 (1975) 7 (1986) 332 10 15 28 37 86 228 286 750 1340
2026-04-25 16:00 4.96 145 7000 (1975) 7 (1986) 332 10 15 28 37 86 228 286 750 1340
2026-04-25 15:00 4.97 147 7000 (1975) 7 (1986) 332 10 15 28 37 86 228 286 750 1340
2026-04-25 14:00 4.99 152 7000 (1975) 7 (1986) 332 10 15 28 37 86 228 286 750 1340
2026-04-25 13:00 5.00 154 7000 (1975) 7 (1986) 332 10 15 28 37 86 228 286 750 1340
2026-04-25 12:00 5.02 159 7000 (1975) 7 (1986) 332 10 15 28 37 86 228 286 750 1340
2026-04-25 11:00 5.03 162 7000 (1975) 7 (1986) 332 10 15 28 37 86 228 286 750 1340
2026-04-25 10:00 5.05 167 7000 (1975) 7 (1986) 332 10 15 28 37 86 228 286 750 1340
2026-04-25 09:00 5.07 172 7000 (1975) 7 (1986) 332 10 15 28 37 86 228 286 750 1340
2026-04-25 08:00 5.09 178 7000 (1975) 7 (1986) 332 10 15 28 37 86 228 286 750 1340
2026-04-25 07:00 5.10 181 7000 (1975) 7 (1986) 332 10 15 28 37 86 228 286 750 1340
2026-04-25 06:00 5.13 189 7000 (1975) 7 (1986) 332 10 15 28 37 86 228 286 750 1340
2026-04-25 05:00 5.14 192 7000 (1975) 7 (1986) 332 10 15 28 37 86 228 286 750 1340
2026-04-25 04:00 5.17 200 7000 (1975) 7 (1986) 332 10 15 28 37 86 228 286 750 1340
2026-04-25 03:00 5.20 209 7000 (1975) 7 (1986) 332 10 15 28 37 86 228 286 750 1340
2026-04-25 02:00 5.24 222 7000 (1975) 7 (1986) 332 10 15 28 37 86 228 286 750 1340
2026-04-25 01:00 5.27 231 7000 (1975) 7 (1986) 332 10 15 28 37 86 228 286 750 1340
2026-04-25 00:00 5.29 238 7000 (1975) 7 (1986) 332 10 15 28 37 86 228 286 750 1340
2026-04-24 23:00 5.32 248 7000 (1975) 7 (1986) 332 10 15 28 37 86 228 286 750 1340
2026-04-24 22:00 5.37 265 5000 (1975) 8 (1986) 267 10 18 25 33 76 177 203 612 1490
2026-04-24 21:00 5.43 287 5000 (1975) 8 (1986) 267 10 18 25 33 76 177 203 612 1490
2026-04-24 20:00 5.49 310 5000 (1975) 8 (1986) 267 10 18 25 33 76 177 203 612 1490
2026-04-24 19:00 5.55 334 5000 (1975) 8 (1986) 267 10 18 25 33 76 177 203 612 1490
2026-04-24 18:00 5.61 360 5000 (1975) 8 (1986) 267 10 18 25 33 76 177 203 612 1490
2026-04-24 17:00 5.61 360 5000 (1975) 8 (1986) 267 10 18 25 33 76 177 203 612 1490
2026-04-24 16:00 5.30 241 5000 (1975) 8 (1986) 267 10 18 25 33 76 177 203 612 1490
2026-04-24 15:00 4.80 110 5000 (1975) 8 (1986) 267 10 18 25 33 76 177 203 612 1490
2026-04-24 14:00 4.75 100 5000 (1975) 8 (1986) 267 10 18 25 33 76 177 203 612 1490
2026-04-24 13:00 4.71 93 5000 (1975) 8 (1986) 267 10 18 25 33 76 177 203 612 1490
2026-04-24 12:00 4.68 88 5000 (1975) 8 (1986) 267 10 18 25 33 76 177 203 612 1490
2026-04-24 11:00 4.64 81 5000 (1975) 8 (1986) 267 10 18 25 33 76 177 203 612 1490
2026-04-24 10:00 4.62 78 5000 (1975) 8 (1986) 267 10 18 25 33 76 177 203 612 1490
2026-04-24 09:00 4.60 75 5000 (1975) 8 (1986) 267 10 18 25 33 76 177 203 612 1490
2026-04-24 08:00 4.58 72 5000 (1975) 8 (1986) 267 10 18 25 33 76 177 203 612 1490
2026-04-24 07:00 4.57 71 5000 (1975) 8 (1986) 267 10 18 25 33 76 177 203 612 1490
2026-04-24 06:00 4.55 68 5000 (1975) 8 (1986) 267 10 18 25 33 76 177 203 612 1490
2026-04-24 05:00 4.53 65 5000 (1975) 8 (1986) 267 10 18 25 33 76 177 203 612 1490
2026-04-24 04:00 4.53 65 5000 (1975) 8 (1986) 267 10 18 25 33 76 177 203 612 1490
2026-04-24 03:00 4.50 62 5000 (1975) 8 (1986) 267 10 18 25 33 76 177 203 612 1490
2026-04-24 02:00 4.51 63 5000 (1975) 8 (1986) 267 10 18 25 33 76 177 203 612 1490
2026-04-24 01:00 4.52 64 5000 (1975) 8 (1986) 267 10 18 25 33 76 177 203 612 1490
2026-04-24 00:00 4.52 64 5000 (1975) 8 (1986) 267 10 18 25 33 76 177 203 612 1490
2026-04-23 23:00 4.53 65 5000 (1975) 8 (1986) 267 10 18 25 33 76 177 203 612 1490
2026-04-23 22:00 4.53 65 3360 (1966) 8 (1986) 240 10 20 24 28 69 195 274 495 1030
2026-04-23 21:00 4.54 67 3360 (1966) 8 (1986) 240 10 20 24 28 69 195 274 495 1030
2026-04-23 20:00 4.55 68 3360 (1966) 8 (1986) 240 10 20 24 28 69 195 274 495 1030
2026-04-23 19:00 4.56 69 3360 (1966) 8 (1986) 240 10 20 24 28 69 195 274 495 1030
2026-04-23 18:00 4.58 72 3360 (1966) 8 (1986) 240 10 20 24 28 69 195 274 495 1030
2026-04-23 17:00 4.59 74 3360 (1966) 8 (1986) 240 10 20 24 28 69 195 274 495 1030
2026-04-23 16:00 4.58 72 3360 (1966) 8 (1986) 240 10 20 24 28 69 195 274 495 1030
2026-04-23 15:00 4.58 72 3360 (1966) 8 (1986) 240 10 20 24 28 69 195 274 495 1030
2026-04-23 14:00 4.58 72 3360 (1966) 8 (1986) 240 10 20 24 28 69 195 274 495 1030
2026-04-23 13:00 4.59 74 3360 (1966) 8 (1986) 240 10 20 24 28 69 195 274 495 1030
2026-04-23 12:00 4.59 74 3360 (1966) 8 (1986) 240 10 20 24 28 69 195 274 495 1030
2026-04-23 11:00 4.60 75 3360 (1966) 8 (1986) 240 10 20 24 28 69 195 274 495 1030
2026-04-23 10:00 4.60 75 3360 (1966) 8 (1986) 240 10 20 24 28 69 195 274 495 1030
2026-04-23 09:00 4.61 77 3360 (1966) 8 (1986) 240 10 20 24 28 69 195 274 495 1030
2026-04-23 08:00 4.60 75 3360 (1966) 8 (1986) 240 10 20 24 28 69 195 274 495 1030
2026-04-23 07:00 4.61 77 3360 (1966) 8 (1986) 240 10 20 24 28 69 195 274 495 1030
2026-04-23 06:00 4.61 77 3360 (1966) 8 (1986) 240 10 20 24 28 69 195 274 495 1030
2026-04-23 05:00 4.62 78 3360 (1966) 8 (1986) 240 10 20 24 28 69 195 274 495 1030
2026-04-23 04:00 4.62 78 3360 (1966) 8 (1986) 240 10 20 24 28 69 195 274 495 1030
2026-04-23 03:00 4.62 78 3360 (1966) 8 (1986) 240 10 20 24 28 69 195 274 495 1030
2026-04-23 02:00 4.63 80 3360 (1966) 8 (1986) 240 10 20 24 28 69 195 274 495 1030
2026-04-23 01:00 4.64 81 3360 (1966) 8 (1986) 240 10 20 24 28 69 195 274 495 1030
2026-04-23 00:00 4.65 83 3360 (1966) 8 (1986) 240 10 20 24 28 69 195 274 495 1030
2026-04-22 23:00 4.65 83 3360 (1966) 8 (1986) 240 10 20 24 28 69 195 274 495 1030
2026-04-22 22:00 4.67 86 3300 (1973) 8 (1986) 301 10 19 25 28 71 159 302 936 2060
2026-04-22 21:00 4.68 88 3300 (1973) 8 (1986) 301 10 19 25 28 71 159 302 936 2060
2026-04-22 20:00 4.69 89 3300 (1973) 8 (1986) 301 10 19 25 28 71 159 302 936 2060
2026-04-22 19:00 4.67 86 3300 (1973) 8 (1986) 301 10 19 25 28 71 159 302 936 2060
2026-04-22 18:00 4.67 86 3300 (1973) 8 (1986) 301 10 19 25 28 71 159 302 936 2060
2026-04-22 17:00 4.68 88 3300 (1973) 8 (1986) 301 10 19 25 28 71 159 302 936 2060
2026-04-22 16:00 4.69 89 3300 (1973) 8 (1986) 301 10 19 25 28 71 159 302 936 2060
2026-04-22 15:00 4.69 89 3300 (1973) 8 (1986) 301 10 19 25 28 71 159 302 936 2060
2026-04-22 14:00 4.69 89 3300 (1973) 8 (1986) 301 10 19 25 28 71 159 302 936 2060
2026-04-22 13:00 4.71 93 3300 (1973) 8 (1986) 301 10 19 25 28 71 159 302 936 2060
2026-04-22 12:00 4.71 93 3300 (1973) 8 (1986) 301 10 19 25 28 71 159 302 936 2060
2026-04-22 11:00 4.72 95 3300 (1973) 8 (1986) 301 10 19 25 28 71 159 302 936 2060
2026-04-22 10:00 4.72 95 3300 (1973) 8 (1986) 301 10 19 25 28 71 159 302 936 2060
2026-04-22 09:00 4.73 97 3300 (1973) 8 (1986) 301 10 19 25 28 71 159 302 936 2060
2026-04-22 08:00 4.73 97 3300 (1973) 8 (1986) 301 10 19 25 28 71 159 302 936 2060
2026-04-22 07:00 4.74 98 3300 (1973) 8 (1986) 301 10 19 25 28 71 159 302 936 2060
2026-04-22 06:00 4.75 100 3300 (1973) 8 (1986) 301 10 19 25 28 71 159 302 936 2060
2026-04-22 05:00 4.76 102 3300 (1973) 8 (1986) 301 10 19 25 28 71 159 302 936 2060
2026-04-22 04:00 4.77 104 3300 (1973) 8 (1986) 301 10 19 25 28 71 159 302 936 2060
2026-04-22 03:00 4.78 106 3300 (1973) 8 (1986) 301 10 19 25 28 71 159 302 936 2060
2026-04-22 02:00 4.79 108 3300 (1973) 8 (1986) 301 10 19 25 28 71 159 302 936 2060
2026-04-22 01:00 4.80 110 3300 (1973) 8 (1986) 301 10 19 25 28 71 159 302 936 2060
2026-04-22 00:00 4.79 108 3300 (1973) 8 (1986) 301 10 19 25 28 71 159 302 936 2060
2026-04-21 23:00 4.80 110 3300 (1973) 8 (1986) 301 10 19 25 28 71 159 302 936 2060
2026-04-21 22:00 4.81 112 4000 (1984) 8 (1986) 279 10 20 28 32 66 173 206 485 1760
2026-04-21 21:00 4.81 112 4000 (1984) 8 (1986) 279 10 20 28 32 66 173 206 485 1760
2026-04-21 20:00 4.82 114 4000 (1984) 8 (1986) 279 10 20 28 32 66 173 206 485 1760
2026-04-21 19:00 4.83 116 4000 (1984) 8 (1986) 279 10 20 28 32 66 173 206 485 1760
2026-04-21 18:00 4.84 118 4000 (1984) 8 (1986) 279 10 20 28 32 66 173 206 485 1760
2026-04-21 17:00 4.84 118 4000 (1984) 8 (1986) 279 10 20 28 32 66 173 206 485 1760
2026-04-21 16:00 4.86 122 4000 (1984) 8 (1986) 279 10 20 28 32 66 173 206 485 1760
2026-04-21 15:00 4.87 124 4000 (1984) 8 (1986) 279 10 20 28 32 66 173 206 485 1760
2026-04-21 14:00 4.88 126 4000 (1984) 8 (1986) 279 10 20 28 32 66 173 206 485 1760
2026-04-21 13:00 4.88 126 4000 (1984) 8 (1986) 279 10 20 28 32 66 173 206 485 1760
2026-04-21 12:00 4.90 131 4000 (1984) 8 (1986) 279 10 20 28 32 66 173 206 485 1760
2026-04-21 11:00 4.90 131 4000 (1984) 8 (1986) 279 10 20 28 32 66 173 206 485 1760
2026-04-21 10:00 4.91 133 4000 (1984) 8 (1986) 279 10 20 28 32 66 173 206 485 1760
2026-04-21 09:00 4.92 135 4000 (1984) 8 (1986) 279 10 20 28 32 66 173 206 485 1760
2026-04-21 08:00 4.92 135 4000 (1984) 8 (1986) 279 10 20 28 32 66 173 206 485 1760
2026-04-21 07:00 4.93 138 4000 (1984) 8 (1986) 279 10 20 28 32 66 173 206 485 1760
2026-04-21 06:00 4.93 138 4000 (1984) 8 (1986) 279 10 20 28 32 66 173 206 485 1760
2026-04-21 05:00 4.95 142 4000 (1984) 8 (1986) 279 10 20 28 32 66 173 206 485 1760
2026-04-21 04:00 4.96 145 4000 (1984) 8 (1986) 279 10 20 28 32 66 173 206 485 1760
2026-04-21 03:00 4.97 147 4000 (1984) 8 (1986) 279 10 20 28 32 66 173 206 485 1760
2026-04-21 02:00 4.97 147 4000 (1984) 8 (1986) 279 10 20 28 32 66 173 206 485 1760
2026-04-21 01:00 4.99 152 4000 (1984) 8 (1986) 279 10 20 28 32 66 173 206 485 1760
2026-04-21 00:00 5.01 157 4000 (1984) 8 (1986) 279 10 20 28 32 66 173 206 485 1760
2026-04-20 23:00 5.01 157 4000 (1984) 8 (1986) 279 10 20 28 32 66 173 206 485 1760
2026-04-20 22:00 5.03 162 3730 (2002) 9 (1986) 366 12 20 30 31 68 218 290 1620 2780
2026-04-20 21:00 5.05 167 3730 (2002) 9 (1986) 366 12 20 30 31 68 218 290 1620 2780
2026-04-20 20:00 5.06 170 3730 (2002) 9 (1986) 366 12 20 30 31 68 218 290 1620 2780
2026-04-20 19:00 5.07 172 3730 (2002) 9 (1986) 366 12 20 30 31 68 218 290 1620 2780
2026-04-20 18:00 5.08 175 3730 (2002) 9 (1986) 366 12 20 30 31 68 218 290 1620 2780
2026-04-20 17:00 5.11 183 3730 (2002) 9 (1986) 366 12 20 30 31 68 218 290 1620 2780
2026-04-20 16:00 5.11 183 3730 (2002) 9 (1986) 366 12 20 30 31 68 218 290 1620 2780
2026-04-20 15:00 5.13 189 3730 (2002) 9 (1986) 366 12 20 30 31 68 218 290 1620 2780
2026-04-20 14:00 5.16 198 3730 (2002) 9 (1986) 366 12 20 30 31 68 218 290 1620 2780
2026-04-20 13:00 5.16 198 3730 (2002) 9 (1986) 366 12 20 30 31 68 218 290 1620 2780
2026-04-20 12:00 5.18 203 3730 (2002) 9 (1986) 366 12 20 30 31 68 218 290 1620 2780
2026-04-20 11:00 5.21 212 3730 (2002) 9 (1986) 366 12 20 30 31 68 218 290 1620 2780
2026-04-20 10:00 5.22 216 3730 (2002) 9 (1986) 366 12 20 30 31 68 218 290 1620 2780
2026-04-20 09:00 5.25 225 3730 (2002) 9 (1986) 366 12 20 30 31 68 218 290 1620 2780
2026-04-20 08:00 5.25 225 3730 (2002) 9 (1986) 366 12 20 30 31 68 218 290 1620 2780
2026-04-20 07:00 5.28 235 3730 (2002) 9 (1986) 366 12 20 30 31 68 218 290 1620 2780
2026-04-20 06:00 5.31 245 3730 (2002) 9 (1986) 366 12 20 30 31 68 218 290 1620 2780
2026-04-20 05:00 5.33 251 3730 (2002) 9 (1986) 366 12 20 30 31 68 218 290 1620 2780
2026-04-20 04:00 5.36 262 3730 (2002) 9 (1986) 366 12 20 30 31 68 218 290 1620 2780
2026-04-20 03:00 5.39 272 3730 (2002) 9 (1986) 366 12 20 30 31 68 218 290 1620 2780
2026-04-20 02:00 5.41 280 3730 (2002) 9 (1986) 366 12 20 30 31 68 218 290 1620 2780
2026-04-20 01:00 5.45 295 3730 (2002) 9 (1986) 366 12 20 30 31 68 218 290 1620 2780
2026-04-20 00:00 5.48 306 3730 (2002) 9 (1986) 366 12 20 30 31 68 218 290 1620 2780
2026-04-19 23:00 5.52 322 3730 (2002) 9 (1986) 366 12 20 30 31 68 218 290 1620 2780
2026-04-19 22:00 5.56 338 3560 (1970) 8 (1977) 308 10 18 29 34 76 164 265 825 2500
2026-04-19 21:00 5.60 355 3560 (1970) 8 (1977) 308 10 18 29 34 76 164 265 825 2500
2026-04-19 20:00 5.63 368 3560 (1970) 8 (1977) 308 10 18 29 34 76 164 265 825 2500
2026-04-19 19:00 5.68 391 3560 (1970) 8 (1977) 308 10 18 29 34 76 164 265 825 2500
2026-04-19 18:00 5.73 414 3560 (1970) 8 (1977) 308 10 18 29 34 76 164 265 825 2500
2026-04-19 17:00 5.78 438 3560 (1970) 8 (1977) 308 10 18 29 34 76 164 265 825 2500
2026-04-19 16:00 5.81 453 3560 (1970) 8 (1977) 308 10 18 29 34 76 164 265 825 2500
2026-04-19 15:00 5.87 484 3560 (1970) 8 (1977) 308 10 18 29 34 76 164 265 825 2500
2026-04-19 14:00 5.92 511 3560 (1970) 8 (1977) 308 10 18 29 34 76 164 265 825 2500
2026-04-19 13:00 5.98 545 3560 (1970) 8 (1977) 308 10 18 29 34 76 164 265 825 2500
2026-04-19 12:00 6.03 574 3560 (1970) 8 (1977) 308 10 18 29 34 76 164 265 825 2500
2026-04-19 11:00 6.09 609 3560 (1970) 8 (1977) 308 10 18 29 34 76 164 265 825 2500
2026-04-19 10:00 6.15 640 3560 (1970) 8 (1977) 308 10 18 29 34 76 164 265 825 2500
2026-04-19 09:00 6.21 673 3560 (1970) 8 (1977) 308 10 18 29 34 76 164 265 825 2500
2026-04-19 08:00 6.28 712 3560 (1970) 8 (1977) 308 10 18 29 34 76 164 265 825 2500
2026-04-19 07:00 6.35 753 3560 (1970) 8 (1977) 308 10 18 29 34 76 164 265 825 2500
2026-04-19 06:00 6.44 808 3560 (1970) 8 (1977) 308 10 18 29 34 76 164 265 825 2500
2026-04-19 05:00 6.51 851 3560 (1970) 8 (1977) 308 10 18 29 34 76 164 265 825 2500
2026-04-19 04:00 6.61 909 3560 (1970) 8 (1977) 308 10 18 29 34 76 164 265 825 2500
2026-04-19 03:00 6.70 964 3560 (1970) 8 (1977) 308 10 18 29 34 76 164 265 825 2500
2026-04-19 02:00 6.81 1030 3560 (1970) 8 (1977) 308 10 18 29 34 76 164 265 825 2500
2026-04-19 01:00 6.91 1100 3560 (1970) 8 (1977) 308 10 18 29 34 76 164 265 825 2500
2026-04-19 00:00 7.04 1190 3560 (1970) 8 (1977) 308 10 18 29 34 76 164 265 825 2500
2026-04-18 23:00 7.17 1280 3560 (1970) 8 (1977) 308 10 18 29 34 76 164 265 825 2500
2026-04-18 22:00 7.34 1400 2480 (2013) 6 (1976) 177 10 19 29 33 69 138 168 344 1140
2026-04-18 21:00 7.50 1500 2480 (2013) 6 (1976) 177 10 19 29 33 69 138 168 344 1140
2026-04-18 20:00 7.70 1640 2480 (2013) 6 (1976) 177 10 19 29 33 69 138 168 344 1140
2026-04-18 19:00 7.90 1790 2480 (2013) 6 (1976) 177 10 19 29 33 69 138 168 344 1140
2026-04-18 18:00 8.14 1970 2480 (2013) 6 (1976) 177 10 19 29 33 69 138 168 344 1140
2026-04-18 17:00 8.39 2120 2480 (2013) 6 (1976) 177 10 19 29 33 69 138 168 344 1140
2026-04-18 16:00 8.69 2300 2480 (2013) 6 (1976) 177 10 19 29 33 69 138 168 344 1140
2026-04-18 15:00 9.10 2550 2480 (2013) 6 (1976) 177 10 19 29 33 69 138 168 344 1140
2026-04-18 14:00 9.72 2960 2480 (2013) 6 (1976) 177 10 19 29 33 69 138 168 344 1140
2026-04-18 13:00 10.79 3690 2480 (2013) 6 (1976) 177 10 19 29 33 69 138 168 344 1140
2026-04-18 12:00 12.15 4690 2480 (2013) 6 (1976) 177 10 19 29 33 69 138 168 344 1140
2026-04-18 11:00 13.62 5860 2480 (2013) 6 (1976) 177 10 19 29 33 69 138 168 344 1140
2026-04-18 10:00 14.39 6540 2480 (2013) 6 (1976) 177 10 19 29 33 69 138 168 344 1140
2026-04-18 09:00 14.31 6450 2480 (2013) 6 (1976) 177 10 19 29 33 69 138 168 344 1140
2026-04-18 08:00 13.56 5810 2480 (2013) 6 (1976) 177 10 19 29 33 69 138 168 344 1140
2026-04-18 07:00 12.00 4580 2480 (2013) 6 (1976) 177 10 19 29 33 69 138 168 344 1140
2026-04-18 06:00 10.17 3270 2480 (2013) 6 (1976) 177 10 19 29 33 69 138 168 344 1140
2026-04-18 05:00 8.36 2100 2480 (2013) 6 (1976) 177 10 19 29 33 69 138 168 344 1140
2026-04-18 04:00 6.87 1070 2480 (2013) 6 (1976) 177 10 19 29 33 69 138 168 344 1140
2026-04-18 03:00 5.77 434 2480 (2013) 6 (1976) 177 10 19 29 33 69 138 168 344 1140
2026-04-18 02:00 5.33 251 2480 (2013) 6 (1976) 177 10 19 29 33 69 138 168 344 1140
2026-04-18 01:00 5.16 198 2480 (2013) 6 (1976) 177 10 19 29 33 69 138 168 344 1140
2026-04-18 00:00 5.08 175 2480 (2013) 6 (1976) 177 10 19 29 33 69 138 168 344 1140
2026-04-17 23:00 5.07 172 2480 (2013) 6 (1976) 177 10 19 29 33 69 138 168 344 1140
2026-04-17 22:00 5.07 172 881 (1982) 7 (1976) 108 10 18 27 31 61 151 166 249 279
2026-04-17 21:00 5.08 175 881 (1982) 7 (1976) 108 10 18 27 31 61 151 166 249 279
2026-04-17 20:00 5.09 178 881 (1982) 7 (1976) 108 10 18 27 31 61 151 166 249 279
2026-04-17 19:00 5.11 183 881 (1982) 7 (1976) 108 10 18 27 31 61 151 166 249 279
2026-04-17 18:00 5.13 189 881 (1982) 7 (1976) 108 10 18 27 31 61 151 166 249 279
2026-04-17 17:00 5.18 203 881 (1982) 7 (1976) 108 10 18 27 31 61 151 166 249 279
2026-04-17 16:00 5.19 206 881 (1982) 7 (1976) 108 10 18 27 31 61 151 166 249 279
2026-04-17 15:00 5.22 216 881 (1982) 7 (1976) 108 10 18 27 31 61 151 166 249 279
2026-04-17 14:00 5.23 219 881 (1982) 7 (1976) 108 10 18 27 31 61 151 166 249 279
2026-04-17 13:00 5.27 231 881 (1982) 7 (1976) 108 10 18 27 31 61 151 166 249 279
2026-04-17 12:00 5.29 238 881 (1982) 7 (1976) 108 10 18 27 31 61 151 166 249 279
2026-04-17 11:00 5.32 248 881 (1982) 7 (1976) 108 10 18 27 31 61 151 166 249 279
2026-04-17 10:00 5.35 258 881 (1982) 7 (1976) 108 10 18 27 31 61 151 166 249 279
2026-04-17 09:00 5.37 265 881 (1982) 7 (1976) 108 10 18 27 31 61 151 166 249 279
2026-04-17 08:00 5.42 283 881 (1982) 7 (1976) 108 10 18 27 31 61 151 166 249 279
2026-04-17 07:00 5.45 295 881 (1982) 7 (1976) 108 10 18 27 31 61 151 166 249 279
2026-04-17 06:00 5.49 310 881 (1982) 7 (1976) 108 10 18 27 31 61 151 166 249 279
2026-04-17 05:00 5.53 326 881 (1982) 7 (1976) 108 10 18 27 31 61 151 166 249 279
2026-04-17 04:00 5.58 347 881 (1982) 7 (1976) 108 10 18 27 31 61 151 166 249 279
2026-04-17 03:00 5.63 368 881 (1982) 7 (1976) 108 10 18 27 31 61 151 166 249 279
2026-04-17 02:00 5.68 391 881 (1982) 7 (1976) 108 10 18 27 31 61 151 166 249 279
2026-04-17 01:00 5.73 414 881 (1982) 7 (1976) 108 10 18 27 31 61 151 166 249 279
2026-04-17 00:00 5.79 443 881 (1982) 7 (1976) 108 10 18 27 31 61 151 166 249 279
2026-04-16 23:00 5.86 479 881 (1982) 7 (1976) 108 10 18 27 31 61 151 166 249 279
2026-04-16 22:00 5.93 517 2090 (2012) 8 (1976) 192 10 20 29 30 68 187 228 475 872
2026-04-16 21:00 6.00 556 2090 (2012) 8 (1976) 192 10 20 29 30 68 187 228 475 872
2026-04-16 20:00 6.09 609 2090 (2012) 8 (1976) 192 10 20 29 30 68 187 228 475 872
2026-04-16 19:00 6.18 657 2090 (2012) 8 (1976) 192 10 20 29 30 68 187 228 475 872
2026-04-16 18:00 6.28 712 2090 (2012) 8 (1976) 192 10 20 29 30 68 187 228 475 872
2026-04-16 17:00 6.40 783 2090 (2012) 8 (1976) 192 10 20 29 30 68 187 228 475 872
2026-04-16 16:00 6.53 862 2090 (2012) 8 (1976) 192 10 20 29 30 68 187 228 475 872
2026-04-16 15:00 6.66 939 2090 (2012) 8 (1976) 192 10 20 29 30 68 187 228 475 872
2026-04-16 14:00 6.82 1040 2090 (2012) 8 (1976) 192 10 20 29 30 68 187 228 475 872
2026-04-16 13:00 6.98 1150 2090 (2012) 8 (1976) 192 10 20 29 30 68 187 228 475 872
2026-04-16 12:00 7.13 1250 2090 (2012) 8 (1976) 192 10 20 29 30 68 187 228 475 872
2026-04-16 11:00 7.25 1340 2090 (2012) 8 (1976) 192 10 20 29 30 68 187 228 475 872
2026-04-16 10:00 7.28 1360 2090 (2012) 8 (1976) 192 10 20 29 30 68 187 228 475 872
2026-04-16 09:00 7.43 1460 2090 (2012) 8 (1976) 192 10 20 29 30 68 187 228 475 872
2026-04-16 08:00 7.66 1610 2090 (2012) 8 (1976) 192 10 20 29 30 68 187 228 475 872
2026-04-16 07:00 7.88 1770 2090 (2012) 8 (1976) 192 10 20 29 30 68 187 228 475 872
2026-04-16 06:00 8.09 1930 2090 (2012) 8 (1976) 192 10 20 29 30 68 187 228 475 872
2026-04-16 05:00 8.21 2010 2090 (2012) 8 (1976) 192 10 20 29 30 68 187 228 475 872
2026-04-16 04:00 8.22 2020 2090 (2012) 8 (1976) 192 10 20 29 30 68 187 228 475 872
2026-04-16 03:00 8.21 2010 2090 (2012) 8 (1976) 192 10 20 29 30 68 187 228 475 872
2026-04-16 02:00 8.15 1970 2090 (2012) 8 (1976) 192 10 20 29 30 68 187 228 475 872
2026-04-16 01:00 8.14 1970 2090 (2012) 8 (1976) 192 10 20 29 30 68 187 228 475 872
2026-04-16 00:00 7.95 1820 2090 (2012) 8 (1976) 192 10 20 29 30 68 187 228 475 872
2026-04-15 23:00 7.09 1220 2090 (2012) 8 (1976) 192 10 20 29 30 68 187 228 475 872
2026-04-15 22:00 5.71 405 7520 (1991) 10 (1976) 386 10 21 28 33 84 248 311 672 2440
2026-04-15 21:00 4.80 110 7520 (1991) 10 (1976) 386 10 21 28 33 84 248 311 672 2440
2026-04-15 20:00 4.26 37 7520 (1991) 10 (1976) 386 10 21 28 33 84 248 311 672 2440
2026-04-15 19:00 4.10 25 7520 (1991) 10 (1976) 386 10 21 28 33 84 248 311 672 2440
2026-04-15 18:00 4.10 25 7520 (1991) 10 (1976) 386 10 21 28 33 84 248 311 672 2440
2026-04-15 17:00 4.09 24 7520 (1991) 10 (1976) 386 10 21 28 33 84 248 311 672 2440
2026-04-15 16:00 4.09 24 7520 (1991) 10 (1976) 386 10 21 28 33 84 248 311 672 2440
2026-04-15 15:00 4.09 24 7520 (1991) 10 (1976) 386 10 21 28 33 84 248 311 672 2440
2026-04-15 14:00 4.09 24 7520 (1991) 10 (1976) 386 10 21 28 33 84 248 311 672 2440
2026-04-15 13:00 4.09 24 7520 (1991) 10 (1976) 386 10 21 28 33 84 248 311 672 2440
2026-04-15 12:00 4.08 24 7520 (1991) 10 (1976) 386 10 21 28 33 84 248 311 672 2440
2026-04-15 11:00 4.09 24 7520 (1991) 10 (1976) 386 10 21 28 33 84 248 311 672 2440
2026-04-15 10:00 4.08 24 7520 (1991) 10 (1976) 386 10 21 28 33 84 248 311 672 2440
2026-04-15 09:00 4.08 24 7520 (1991) 10 (1976) 386 10 21 28 33 84 248 311 672 2440
2026-04-15 08:00 4.07 23 7520 (1991) 10 (1976) 386 10 21 28 33 84 248 311 672 2440
2026-04-15 07:00 4.07 23 7520 (1991) 10 (1976) 386 10 21 28 33 84 248 311 672 2440
2026-04-15 06:00 4.07 23 7520 (1991) 10 (1976) 386 10 21 28 33 84 248 311 672 2440
2026-04-15 05:00 4.07 23 7520 (1991) 10 (1976) 386 10 21 28 33 84 248 311 672 2440
2026-04-15 04:00 4.08 24 7520 (1991) 10 (1976) 386 10 21 28 33 84 248 311 672 2440
2026-04-15 03:00 4.08 24 7520 (1991) 10 (1976) 386 10 21 28 33 84 248 311 672 2440
2026-04-15 02:00 4.08 24 7520 (1991) 10 (1976) 386 10 21 28 33 84 248 311 672 2440
2026-04-15 01:00 4.08 24 7520 (1991) 10 (1976) 386 10 21 28 33 84 248 311 672 2440
2026-04-15 00:00 4.09 24 7520 (1991) 10 (1976) 386 10 21 28 33 84 248 311 672 2440
2026-04-14 23:00 4.09 24 7520 (1991) 10 (1976) 386 10 21 28 33 84 248 311 672 2440
2026-04-14 22:00 4.09 24 4010 (2012) 9 (1976) 360 11 22 29 34 69 268 389 1490 2270
2026-04-14 21:00 4.09 24 4010 (2012) 9 (1976) 360 11 22 29 34 69 268 389 1490 2270
2026-04-14 20:00 4.10 25 4010 (2012) 9 (1976) 360 11 22 29 34 69 268 389 1490 2270
2026-04-14 19:00 4.10 25 4010 (2012) 9 (1976) 360 11 22 29 34 69 268 389 1490 2270
2026-04-14 18:00 4.10 25 4010 (2012) 9 (1976) 360 11 22 29 34 69 268 389 1490 2270
2026-04-14 17:00 4.11 26 4010 (2012) 9 (1976) 360 11 22 29 34 69 268 389 1490 2270
2026-04-14 16:00 4.12 26 4010 (2012) 9 (1976) 360 11 22 29 34 69 268 389 1490 2270
2026-04-14 15:00 4.12 26 4010 (2012) 9 (1976) 360 11 22 29 34 69 268 389 1490 2270
2026-04-14 14:00 4.12 26 4010 (2012) 9 (1976) 360 11 22 29 34 69 268 389 1490 2270
2026-04-14 13:00 4.12 26 4010 (2012) 9 (1976) 360 11 22 29 34 69 268 389 1490 2270
2026-04-14 12:00 4.13 27 4010 (2012) 9 (1976) 360 11 22 29 34 69 268 389 1490 2270
2026-04-14 10:00 4.13 27 4010 (2012) 9 (1976) 360 11 22 29 34 69 268 389 1490 2270
2026-04-14 09:00 4.12 26 4010 (2012) 9 (1976) 360 11 22 29 34 69 268 389 1490 2270
2026-04-14 08:00 4.13 27 4010 (2012) 9 (1976) 360 11 22 29 34 69 268 389 1490 2270
2026-04-14 07:00 4.13 27 4010 (2012) 9 (1976) 360 11 22 29 34 69 268 389 1490 2270
2026-04-14 06:00 4.13 27 4010 (2012) 9 (1976) 360 11 22 29 34 69 268 389 1490 2270
2026-04-14 05:00 4.14 28 4010 (2012) 9 (1976) 360 11 22 29 34 69 268 389 1490 2270
2026-04-14 04:00 4.14 28 4010 (2012) 9 (1976) 360 11 22 29 34 69 268 389 1490 2270
2026-04-14 03:00 4.14 28 4010 (2012) 9 (1976) 360 11 22 29 34 69 268 389 1490 2270
2026-04-14 02:00 4.14 28 4010 (2012) 9 (1976) 360 11 22 29 34 69 268 389 1490 2270
2026-04-14 01:00 4.13 27 4010 (2012) 9 (1976) 360 11 22 29 34 69 268 389 1490 2270
2026-04-14 00:00 4.14 28 4010 (2012) 9 (1976) 360 11 22 29 34 69 268 389 1490 2270
2026-04-13 23:00 4.13 27 4010 (2012) 9 (1976) 360 11 22 29 34 69 268 389 1490 2270
2026-04-13 22:00 4.14 28 2980 (1987) 8 (1976) 196 11 18 29 32 68 148 211 318 406
2026-04-13 21:00 4.14 28 2980 (1987) 8 (1976) 196 11 18 29 32 68 148 211 318 406
2026-04-13 20:00 4.14 28 2980 (1987) 8 (1976) 196 11 18 29 32 68 148 211 318 406
2026-04-13 19:00 4.14 28 2980 (1987) 8 (1976) 196 11 18 29 32 68 148 211 318 406
2026-04-13 18:00 4.15 29 2980 (1987) 8 (1976) 196 11 18 29 32 68 148 211 318 406
2026-04-13 17:00 4.16 29 2980 (1987) 8 (1976) 196 11 18 29 32 68 148 211 318 406
2026-04-13 16:00 4.16 29 2980 (1987) 8 (1976) 196 11 18 29 32 68 148 211 318 406
2026-04-13 15:00 4.16 29 2980 (1987) 8 (1976) 196 11 18 29 32 68 148 211 318 406
2026-04-13 14:00 4.17 30 2980 (1987) 8 (1976) 196 11 18 29 32 68 148 211 318 406
2026-04-13 13:00 4.16 29 2980 (1987) 8 (1976) 196 11 18 29 32 68 148 211 318 406
2026-04-13 12:00 4.18 31 2980 (1987) 8 (1976) 196 11 18 29 32 68 148 211 318 406
2026-04-13 11:00 4.18 31 2980 (1987) 8 (1976) 196 11 18 29 32 68 148 211 318 406
2026-04-13 10:00 4.17 30 2980 (1987) 8 (1976) 196 11 18 29 32 68 148 211 318 406
2026-04-13 09:00 4.18 31 2980 (1987) 8 (1976) 196 11 18 29 32 68 148 211 318 406
2026-04-13 08:00 4.17 30 2980 (1987) 8 (1976) 196 11 18 29 32 68 148 211 318 406
2026-04-13 07:00 4.18 31 2980 (1987) 8 (1976) 196 11 18 29 32 68 148 211 318 406
2026-04-13 06:00 4.18 31 2980 (1987) 8 (1976) 196 11 18 29 32 68 148 211 318 406
2026-04-13 05:00 4.18 31 2980 (1987) 8 (1976) 196 11 18 29 32 68 148 211 318 406
2026-04-13 04:00 4.19 32 2980 (1987) 8 (1976) 196 11 18 29 32 68 148 211 318 406
2026-04-13 03:00 4.19 32 2980 (1987) 8 (1976) 196 11 18 29 32 68 148 211 318 406
2026-04-13 02:00 4.19 32 2980 (1987) 8 (1976) 196 11 18 29 32 68 148 211 318 406
2026-04-13 01:00 4.20 32 2980 (1987) 8 (1976) 196 11 18 29 32 68 148 211 318 406
2026-04-13 00:00 4.20 32 2980 (1987) 8 (1976) 196 11 18 29 32 68 148 211 318 406
2026-04-12 23:00 4.20 32 2980 (1987) 8 (1976) 196 11 18 29 32 68 148 211 318 406
2026-04-12 22:00 4.20 32 2670 (1994) 10 (1976) 205 11 12 29 33 54 151 226 481 1420
2026-04-12 21:00 4.20 32 2670 (1994) 10 (1976) 205 11 12 29 33 54 151 226 481 1420
2026-04-12 20:00 4.21 33 2670 (1994) 10 (1976) 205 11 12 29 33 54 151 226 481 1420
2026-04-12 19:00 4.21 33 2670 (1994) 10 (1976) 205 11 12 29 33 54 151 226 481 1420
2026-04-12 18:00 4.22 34 2670 (1994) 10 (1976) 205 11 12 29 33 54 151 226 481 1420
2026-04-12 17:00 4.22 34 2670 (1994) 10 (1976) 205 11 12 29 33 54 151 226 481 1420
2026-04-12 16:00 4.23 35 2670 (1994) 10 (1976) 205 11 12 29 33 54 151 226 481 1420
2026-04-12 15:00 4.23 35 2670 (1994) 10 (1976) 205 11 12 29 33 54 151 226 481 1420
2026-04-12 14:00 4.23 35 2670 (1994) 10 (1976) 205 11 12 29 33 54 151 226 481 1420
2026-04-12 13:00 4.24 36 2670 (1994) 10 (1976) 205 11 12 29 33 54 151 226 481 1420
2026-04-12 12:00 4.24 36 2670 (1994) 10 (1976) 205 11 12 29 33 54 151 226 481 1420
2026-04-12 11:00 4.24 36 2670 (1994) 10 (1976) 205 11 12 29 33 54 151 226 481 1420
2026-04-12 10:00 4.24 36 2670 (1994) 10 (1976) 205 11 12 29 33 54 151 226 481 1420
2026-04-12 09:00 4.25 36 2670 (1994) 10 (1976) 205 11 12 29 33 54 151 226 481 1420
2026-04-12 08:00 4.24 36 2670 (1994) 10 (1976) 205 11 12 29 33 54 151 226 481 1420
2026-04-12 07:00 4.24 36 2670 (1994) 10 (1976) 205 11 12 29 33 54 151 226 481 1420
2026-04-12 06:00 4.24 36 2670 (1994) 10 (1976) 205 11 12 29 33 54 151 226 481 1420
2026-04-12 05:00 4.24 36 2670 (1994) 10 (1976) 205 11 12 29 33 54 151 226 481 1420
2026-04-12 04:00 4.25 36 2670 (1994) 10 (1976) 205 11 12 29 33 54 151 226 481 1420
2026-04-12 03:00 4.25 36 2670 (1994) 10 (1976) 205 11 12 29 33 54 151 226 481 1420
2026-04-12 02:00 4.25 36 2670 (1994) 10 (1976) 205 11 12 29 33 54 151 226 481 1420
2026-04-12 01:00 4.25 36 2670 (1994) 10 (1976) 205 11 12 29 33 54 151 226 481 1420
2026-04-12 00:00 4.26 37 2670 (1994) 10 (1976) 205 11 12 29 33 54 151 226 481 1420
2026-04-11 23:00 4.25 36 2670 (1994) 10 (1976) 205 11 12 29 33 54 151 226 481 1420
2026-04-11 22:00 4.25 36 11300 (1994) 11 (1976) 578 12 13 28 34 55 209 308 1040 2120
2026-04-11 21:00 4.25 36 11300 (1994) 11 (1976) 578 12 13 28 34 55 209 308 1040 2120
2026-04-11 20:00 4.25 36 11300 (1994) 11 (1976) 578 12 13 28 34 55 209 308 1040 2120
2026-04-11 19:00 4.25 36 11300 (1994) 11 (1976) 578 12 13 28 34 55 209 308 1040 2120
2026-04-11 18:00 4.26 37 11300 (1994) 11 (1976) 578 12 13 28 34 55 209 308 1040 2120
2026-04-11 17:00 4.26 37 11300 (1994) 11 (1976) 578 12 13 28 34 55 209 308 1040 2120
2026-04-11 16:00 4.26 37 11300 (1994) 11 (1976) 578 12 13 28 34 55 209 308 1040 2120
2026-04-11 15:00 4.27 38 11300 (1994) 11 (1976) 578 12 13 28 34 55 209 308 1040 2120
2026-04-11 14:00 4.27 38 11300 (1994) 11 (1976) 578 12 13 28 34 55 209 308 1040 2120
2026-04-11 13:00 4.27 38 11300 (1994) 11 (1976) 578 12 13 28 34 55 209 308 1040 2120
2026-04-11 12:00 4.27 38 11300 (1994) 11 (1976) 578 12 13 28 34 55 209 308 1040 2120
2026-04-11 11:00 4.28 39 11300 (1994) 11 (1976) 578 12 13 28 34 55 209 308 1040 2120
2026-04-11 10:00 4.28 39 11300 (1994) 11 (1976) 578 12 13 28 34 55 209 308 1040 2120
2026-04-11 09:00 4.28 39 11300 (1994) 11 (1976) 578 12 13 28 34 55 209 308 1040 2120
2026-04-11 08:00 4.28 39 11300 (1994) 11 (1976) 578 12 13 28 34 55 209 308 1040 2120
2026-04-11 07:00 4.28 39 11300 (1994) 11 (1976) 578 12 13 28 34 55 209 308 1040 2120
2026-04-11 06:00 4.28 39 11300 (1994) 11 (1976) 578 12 13 28 34 55 209 308 1040 2120
2026-04-11 05:00 4.29 40 11300 (1994) 11 (1976) 578 12 13 28 34 55 209 308 1040 2120
2026-04-11 04:00 4.29 40 11300 (1994) 11 (1976) 578 12 13 28 34 55 209 308 1040 2120
2026-04-11 03:00 4.29 40 11300 (1994) 11 (1976) 578 12 13 28 34 55 209 308 1040 2120
2026-04-11 02:00 4.29 40 11300 (1994) 11 (1976) 578 12 13 28 34 55 209 308 1040 2120
2026-04-11 01:00 4.30 41 11300 (1994) 11 (1976) 578 12 13 28 34 55 209 308 1040 2120
2026-04-11 00:00 4.30 41 11300 (1994) 11 (1976) 578 12 13 28 34 55 209 308 1040 2120
2026-04-10 23:00 4.31 42 11300 (1994) 11 (1976) 578 12 13 28 34 55 209 308 1040 2120
2026-04-10 22:00 4.31 42 7030 (1994) 11 (1966) 357 11 13 26 31 52 131 193 801 1460
2026-04-10 21:00 4.32 43 7030 (1994) 11 (1966) 357 11 13 26 31 52 131 193 801 1460
2026-04-10 20:00 4.32 43 7030 (1994) 11 (1966) 357 11 13 26 31 52 131 193 801 1460
2026-04-10 19:00 4.32 43 7030 (1994) 11 (1966) 357 11 13 26 31 52 131 193 801 1460
2026-04-10 18:00 4.33 44 7030 (1994) 11 (1966) 357 11 13 26 31 52 131 193 801 1460
2026-04-10 17:00 4.33 44 7030 (1994) 11 (1966) 357 11 13 26 31 52 131 193 801 1460
2026-04-10 16:00 4.34 44 7030 (1994) 11 (1966) 357 11 13 26 31 52 131 193 801 1460
2026-04-10 15:00 4.34 44 7030 (1994) 11 (1966) 357 11 13 26 31 52 131 193 801 1460
2026-04-10 14:00 4.34 44 7030 (1994) 11 (1966) 357 11 13 26 31 52 131 193 801 1460
2026-04-10 13:00 4.34 44 7030 (1994) 11 (1966) 357 11 13 26 31 52 131 193 801 1460
2026-04-10 12:00 4.35 45 7030 (1994) 11 (1966) 357 11 13 26 31 52 131 193 801 1460
2026-04-10 11:00 4.35 45 7030 (1994) 11 (1966) 357 11 13 26 31 52 131 193 801 1460
2026-04-10 10:00 4.35 45 7030 (1994) 11 (1966) 357 11 13 26 31 52 131 193 801 1460
2026-04-10 09:00 4.36 46 7030 (1994) 11 (1966) 357 11 13 26 31 52 131 193 801 1460
2026-04-10 08:00 4.35 45 7030 (1994) 11 (1966) 357 11 13 26 31 52 131 193 801 1460
2026-04-10 07:00 4.36 46 7030 (1994) 11 (1966) 357 11 13 26 31 52 131 193 801 1460
2026-04-10 06:00 4.36 46 7030 (1994) 11 (1966) 357 11 13 26 31 52 131 193 801 1460
2026-04-10 05:00 4.37 47 7030 (1994) 11 (1966) 357 11 13 26 31 52 131 193 801 1460
2026-04-10 04:00 4.37 47 7030 (1994) 11 (1966) 357 11 13 26 31 52 131 193 801 1460
2026-04-10 03:00 4.38 48 7030 (1994) 11 (1966) 357 11 13 26 31 52 131 193 801 1460
2026-04-10 02:00 4.38 48 7030 (1994) 11 (1966) 357 11 13 26 31 52 131 193 801 1460
2026-04-10 01:00 4.38 48 7030 (1994) 11 (1966) 357 11 13 26 31 52 131 193 801 1460
2026-04-10 00:00 4.39 49 7030 (1994) 11 (1966) 357 11 13 26 31 52 131 193 801 1460
2026-04-09 23:00 4.39 49 7030 (1994) 11 (1966) 357 11 13 26 31 52 131 193 801 1460

A total of 734 rows are displayed for years 1966 through 2025.